Temperature
23 22 21 21 21 20 20 20 20 19 19 19 18 18 18 18 18 18 18 18 18 18 18 18 18 18 18 17 17 17 17 17 17 17 17 17 17 17 17 17 17 17 17
24 22 21 21 21 21 20 20 20 20 19 19 19 18 18 18 18 18 18 18 18 18 18 18 18 18 18 17 17 17 17 17 17 17 18 18 18 18 18 17 17 17 17
25 23 22 22 21 21 21 20 20 20 20 19 19 18 18 18 18 18 18 18 18 18 18 18 18 18 18 17 17 17 17 17 17 17 18 18 18 18 18 18 17 17 17
25 24 23 22 22 21 21 21 21 20 20 19 19 19 18 18 18 18 18 18 18 18 18 18 18 18 17 18 17 17 17 17 17 17 17 17 18 18 18 18 18 17 17
26 24 23 23 22 22 21 21 21 20 20 20 19 19 18 18 18 18 18 18 18 18 18 18 18 18 17 17 17 17 17 17 17 17 17 17 17 17 17 18 18 18 18
26 25 24 23 22 22 21 21 21 21 20 20 19 19 19 18 18 18 18 18 18 18 18 17 18 18 17 17 17 17 17 17 17 17 17 17 17 18 18 18 18 18 18
26 25 24 23 22 22 22 21 21 21 21 20 19 19 19 18 18 18 18 18 18 18 18 18 18 17 17 17 17 17 17 17 17 17 17 17 17 17 17 17 17 17 17
27 26 24 24 23 22 22 21 21 21 21 20 20 19 19 19 18 18 18 18 18 18 18 18 18 17 17 17 17 17 17 17 17 17 17 17 17 17 17 17 17 17 17
27 26 25 24 23 22 22 22 21 21 20 20 20 19 19 19 18 18 18 18 18 18 17 17 17 17 17 17 17 17 17 17 17 17 17 17 17 17 17 17 17 17 17
27 26 25 24 23 23 22 21 21 21 20 20 20 19 19 19 19 18 18 18 18 18 18 17 17 17 17 17 17 17 17 17 17 17 17 17 17 17 17 17 16 16 16
27 26 25 24 23 23 22 21 21 21 20 20 20 19 19 19 18 18 18 18 18 18 17 17 17 17 17 17 17 17 17 17 17 17 16 16 17 16 16 16 16 16 16
27 26 25 24 23 23 22 22 21 21 20 20 20 20 19 19 18 18 18 18 18 18 17 17 17 17 17 17 17 17 17 16 16 16 16 16 16 16 16 16 16 16 16
26 26 25 24 24 23 23 22 21 21 20 20 20 20 19 19 19 18 18 18 18 18 17 17 17 17 17 17 17 17 16 16 16 16 16 16 16 16 16 16 16 16 16
26 25 25 24 23 23 22 22 21 21 21 20 20 20 19 19 18 18 18 18 18 18 17 17 17 17 17 17 16 16 16 16 16 16 16 16 16 16 16 16 16 16 16
25 25 24 23 23 23 22 22 21 21 21 20 20 20 19 19 19 18 18 18 18 17 17 17 17 17 16 16 16 16 16 16 16 16 16 16 16 16 15 15 15 15 15
25 24 24 23 23 22 22 22 22 21 21 20 20 20 19 19 19 19 18 18 18 17 17 17 17 17 16 17 16 16 16 16 16 16 16 15 15 15 15 15 15 15 15
25 24 24 23 22 22 22 22 22 21 21 20 20 19 19 19 19 18 18 18 18 17 17 17 17 16 17 17 16 16 16 16 15 15 15 15 15 15 15 15 15 15 15
24 24 23 23 22 22 22 22 22 21 21 20 20 20 19 19 19 18 18 18 18 17 17 17 16 16 16 16 16 16 16 15 15 15 15 15 14 14 14 14 14 14 14
22 22 22 23 22 22 22 22 21 21 20 20 19 19 19 19 19 18 18 18 17 17 17 16 16 16 16 16 16 16 15 15 15 14 14 14 14 14 14 14 14 13 13
21 21 21 21 21 21 21 21 21 20 20 19 19 19 19 19 18 18 17 17 17 17 16 16 16 15 15 16 15 15 14 14 14 14 14 14 14 14 13 13 13 13 13
20 20 20 20 20 21 21 20 20 20 20 19 19 18 18 18 18 17 17 17 16 16 16 16 15 15 15 15 15 15 14 14 13 13 13 13 13 13 13 13 13 12 12
19 19 19 20 20 20 20 20 20 19 19 18 18 18 17 17 17 17 17 16 16 15 15 15 15 14 14 14 14 14 14 14 13 13 13 13 13 13 13 12 12 12 12
18 18 18 19 19 19 19 19 19 18 18 18 17 17 17 17 16 16 16 15 15 15 14 14 14 14 14 14 14 14 14 13 13 13 13 13 12 12 12 12 12 12 11
17 17 18 18 18 18 18 18 18 17 17 17 17 16 16 16 16 15 15 15 14 14 14 14 14 13 13 13 13 13 13 13 12 12 12 12 12 12 11 11 11 11 11
17 17 17 17 17 17 17 17 17 17 16 16 16 15 15 15 15 15 15 14 14 14 14 13 13 13 13 13 13 13 12 12 12 12 11 11 11 11 11 10 10 10 10
16 16 16 16 16 16 16 16 16 16 16 15 15 15 14 14 14 14 14 14 14 13 13 13 13 13 12 12 12 12 12 12 12 11 11 11 10 10 10 10 10 10 10
Wind_Speed
11 11 11 10 10 10 10 11 10 9 8 7 8 7 6 6 6 6 7 8 8 8 7 6 5 6 5 5 6 5 6 5 4 4 4 4 6 6 5 6 6 7 7
11 11 11 11 11 11 11 11 11 11 10 8 7 5 5 5 6 5 6 8 8 8 8 7 6 6 6 6 6 6 6 5 5 4 3 3 5 6 7 6 7 7 7
12 12 12 11 11 11 11 10 11 11 11 9 7 6 5 5 5 6 6 7 8 9 8 8 7 6 7 6 7 7 8 6 5 5 4 4 3 2 4 6 6 6 6
12 12 12 11 11 11 11 11 10 10 10 10 9 9 7 6 6 5 5 6 7 8 8 8 8 7 7 6 8 8 7 6 6 5 6 6 4 4 3 5 6 6 7
13 13 12 11 10 10 10 10 10 10 10 10 9 9 8 6 5 5 5 6 6 7 8 8 7 7 7 8 8 6 8 7 7 6 5 6 6 7 6 5 4 5 5
13 12 11 10 9 9 9 10 10 10 10 10 10 10 8 7 6 6 5 5 5 5 7 8 7 7 7 7 8 7 9 8 8 7 7 6 6 6 6 7 6 5 5
12 12 12 12 10 10 10 10 10 10 10 10 10 9 8 7 7 7 6 6 5 5 5 6 6 6 7 8 7 8 8 8 8 8 8 7 8 7 6 7 6 6 5
12 12 13 12 11 11 10 10 10 9 9 9 8 8 7 6 5 6 5 5 5 4 4 5 6 7 7 8 7 7 8 7 8 9 9 7 8 7 7 7 6 6 6
12 12 12 12 11 10 10 10 9 9 9 9 8 7 7 6 5 5 5 5 5 4 5 5 6 7 7 8 8 7 8 7 8 8 9 8 6 7 7 7 7 7 7
12 12 11 11 11 10 10 9 9 9 8 8 7 6 6 6 5 5 5 5 5 5 5 6 6 7 7 6 7 7 7 7 7 6 7 7 7 6 6 7 7 6 7
12 12 11 11 11 10 10 10 9 9 8 8 7 6 6 5 5 5 5 5 5 5 6 6 6 6 6 6 5 6 6 7 7 7 7 7 7 6 6 6 7 7 7
11 12 12 12 11 11 11 10 10 9 9 8 7 7 6 6 5 5 5 5 5 5 5 5 5 5 5 5 6 7 6 7 8 8 7 7 6 7 7 6 7 7 6
11 12 12 12 12 11 11 10 10 9 9 9 8 7 7 6 5 5 4 4 4 5 5 4 5 4 4 5 5 6 6 7 7 7 7 7 7 7 6 6 7 6 6
10 12 12 12 11 11 11 10 9 9 9 9 8 7 7 6 5 4 4 4 4 4 4 4 4 3 3 3 4 5 5 6 6 6 6 6 6 7 6 6 6 5 5
10 12 12 12 12 11 11 10 9 9 9 9 8 7 6 6 5 4 4 4 4 4 4 3 3 3 3 2 3 4 4 5 5 5 5 4 3 3 4 5 5 5 6
10 11 12 12 12 12 11 11 10 10 9 9 8 7 6 6 5 4 4 3 3 3 3 3 3 2 2 2 3 4 4 4 4 4 4 4 3 3 3 4 5 5 6
8 10 10 11 11 11 11 11 10 10 10 8 7 7 6 6 5 4 4 3 3 3 3 2 2 2 1 1 2 4 4 3 3 3 3 4 2 3 3 3 4 4 4
5 7 8 9 10 10 10 10 10 10 9 8 8 7 6 5 4 3 3 3 3 3 2 2 2 1 0 1 1 4 4 3 3 2 2 3 3 2 3 3 3 3 2
2 4 6 7 8 9 10 10 10 10 9 8 7 6 6 6 5 4 3 3 3 3 3 2 2 2 1 1 1 5 3 2 2 1 1 2 2 2 3 3 3 3 2
1 2 4 6 7 8 9 10 10 10 8 7 6 6 6 5 5 4 4 3 3 3 3 2 2 2 1 1 1 4 3 2 2 2 1 1 1 1 2 4 4 4 3
3 4 5 6 6 7 8 8 8 8 7 6 6 5 4 4 4 4 4 4 4 4 3 3 3 2 1 2 1 2 3 3 3 2 2 0 2 0 2 4 4 3 3
4 5 6 6 6 7 8 8 7 6 6 6 6 5 4 3 3 3 3 3 3 4 4 3 3 2 1 0 2 1 2 5 3 2 2 1 2 1 3 3 2 2 4
4 4 6 7 6 6 7 7 6 6 6 6 5 4 4 3 2 3 3 3 3 3 3 3 2 1 1 2 3 3 2 3 2 1 2 2 1 3 3 2 3 4 3
4 5 6 6 6 5 5 5 5 5 6 6 5 4 4 3 3 1 1 1 1 2 2 2 2 1 1 0 0 1 2 3 2 1 2 4 3 3 0 2 3 2 1
4 4 5 5 5 5 5 4 4 4 5 5 5 4 3 3 3 2 2 1 2 1 1 1 1 1 1 1 3 2 1 1 1 2 2 1 1 1 1 1 1 1 1
3 4 5 5 5 5 4 4 3 4 4 4 4 3 3 3 3 3 3 6 4 5 5 5 4 3 4 3 2 1 2 2 1 2 1 1 1 1 1 1 1 1 1
Wind_Direction
189 186 189 195 195 196 198 200 203 198 201 206 210 209 216 221 221 224 221 223 230 227 223 234 215 226 223 219 216 217 212 217 218 230 236 234 227 226 224 227 228 218 219
185 184 189 193 196 197 200 201 204 204 204 205 212 216 222 230 228 232 225 226 228 230 225 227 231 223 223 222 222 219 229 223 210 227 244 245 223 218 222 218 219 225 221
188 184 190 193 196 199 200 203 204 204 206 205 208 212 216 230 227 225 227 228 228 228 233 232 236 233 228 223 225 223 228 231 227 227 238 259 259 247 209 218 222 222 226
192 188 189 191 196 199 198 201 201 203 204 204 213 218 225 231 235 231 229 231 234 236 232 233 234 236 237 231 232 225 229 235 238 236 236 250 271 269 253 219 213 213 222
193 191 191 191 194 195 194 194 196 202 203 205 211 220 232 237 237 234 234 237 234 237 239 235 234 233 238 237 239 238 234 235 241 245 246 244 244 246 254 260 243 230 226
191 188 188 187 190 190 191 194 193 198 201 204 210 221 232 239 243 239 237 233 228 229 234 235 233 236 240 240 241 243 239 238 243 247 249 246 246 245 248 256 255 252 243
186 185 186 186 189 190 190 191 191 195 198 201 208 219 229 234 236 240 229 234 238 235 234 240 238 242 243 245 246 244 248 241 241 244 247 249 250 255 252 253 261 264 259
180 183 185 185 186 186 187 189 189 192 193 199 204 216 222 228 231 231 242 240 245 248 253 246 243 245 247 247 243 244 241 238 239 244 247 250 250 250 248 248 254 260 257
175 178 179 180 182 184 186 187 186 188 192 197 196 206 212 224 231 231 233 238 241 245 243 245 246 250 252 253 248 245 243 239 238 242 240 244 249 247 247 246 242 249 260
175 175 175 176 177 179 179 182 183 185 188 191 197 196 201 209 221 233 235 243 247 248 250 251 251 254 257 256 250 243 238 238 238 240 244 246 248 249 248 247 245 243 250
177 176 174 173 172 173 173 175 177 180 183 187 191 196 199 203 211 219 228 233 240 240 242 248 254 259 262 260 255 254 247 242 240 240 239 244 249 247 251 249 246 244 243
179 177 174 172 174 175 174 174 176 179 182 181 185 192 198 205 213 214 222 229 236 241 243 248 253 260 265 262 257 258 253 250 246 244 244 247 246 242 248 252 252 251 248
181 177 174 176 178 178 177 175 178 179 177 175 181 186 195 200 210 220 226 230 238 244 246 245 252 261 268 263 258 256 254 252 252 250 248 251 251 250 251 250 252 253 250
184 183 179 179 180 179 177 177 179 176 175 176 181 186 195 202 209 216 221 227 232 237 239 241 250 256 261 266 264 258 254 254 253 253 257 261 256 256 257 251 250 251 254
186 188 186 182 181 180 179 179 177 175 175 177 182 184 188 194 204 212 219 222 227 229 224 226 236 249 253 274 280 267 255 257 260 256 256 259 270 294 274 268 264 258 253
192 191 190 186 184 183 182 178 177 174 174 179 182 179 183 189 196 201 204 206 210 218 216 219 227 244 274 12 327 292 270 262 261 260 261 261 251 238 229 248 254 258 256
201 196 193 190 186 183 180 179 177 174 175 179 181 180 186 189 195 203 200 199 202 201 204 218 225 235 306 360 293 287 276 267 268 272 281 281 279 261 255 231 222 237 243
208 200 195 187 182 177 174 175 173 174 177 179 182 184 189 186 181 189 195 202 206 205 205 207 211 226 45 47 298 286 254 263 265 263 260 271 289 308 308 279 266 268 268
212 201 193 183 173 170 166 166 168 171 174 177 180 182 187 183 182 188 194 198 201 201 205 206 219 234 158 72 299 287 250 241 244 259 274 278 277 26 329 277 267 270 271
117 154 163 158 158 162 162 163 165 167 171 171 174 176 178 184 185 182 189 195 201 203 208 200 217 231 236 110 325 294 264 252 248 236 237 52 343 13 301 264 259 260 269
106 126 137 143 145 148 151 154 155 161 162 158 156 161 167 179 183 174 177 188 201 204 208 197 204 219 266 152 117 312 288 277 267 264 265 349 108 241 282 276 269 279 279
105 116 121 121 127 135 140 144 145 148 148 147 144 141 144 159 167 168 175 189 206 208 204 201 209 208 198 138 142 173 289 309 280 281 292 42 100 226 256 271 312 293 264
100 109 116 115 115 129 136 143 141 143 145 139 135 135 133 135 151 173 182 190 212 233 231 223 221 220 197 148 147 177 223 275 276 305 49 68 185 224 212 216 256 251 245
100 106 111 111 108 110 116 127 132 143 146 142 142 141 137 135 124 137 184 188 194 235 246 258 252 241 216 307 325 229 208 203 217 222 160 183 207 233 261 195 217 241 278
93 103 106 109 106 104 105 113 125 141 143 141 140 140 140 136 133 114 74 71 64 21 271 247 251 268 257 33 6 331 308 287 255 246 214 200 194 210 209 222 228 222 210
99 104 105 107 107 106 101 97 110 128 136 139 143 148 150 150 150 136 116 64 60 65 53 34 19 65 60 99 103 25 356 358 317 253 226 227 247 255 260 247 227 222 238
Height
1544 1547 1548 1550 1552 1553 1554 1556 1558 1559 1560 1561 1563 1564 1565 1566 1567 1568 1569 1570 1571 1572 1573 1574 1575 1575 1576 1577 1578 1578 1579 1580 1580 1581 1581 1581 1581 1581 1581 1582 1582 1582 1582
1542 1544 1546 1548 1550 1551 1553 1554 1555 1557 1558 1559 1560 1561 1563 1564 1565 1566 1566 1568 1569 1570 1572 1572 1573 1574 1574 1575 1575 1576 1577 1578 1578 1579 1579 1579 1580 1578 1579 1579 1579 1579 1580
1539 1542 1544 1546 1548 1549 1550 1552 1553 1555 1556 1557 1559 1559 1560 1561 1563 1563 1564 1565 1566 1567 1568 1569 1571 1571 1572 1573 1573 1574 1574 1575 1576 1577 1577 1577 1576 1577 1577 1576 1576 1576 1577
1536 1539 1541 1543 1545 1547 1549 1550 1551 1553 1554 1555 1556 1558 1559 1559 1560 1561 1562 1562 1563 1564 1565 1567 1567 1568 1569 1570 1570 1571 1572 1572 1573 1574 1574 1575 1575 1575 1574 1574 1574 1574 1574
1533 1536 1538 1541 1543 1545 1546 1548 1549 1550 1552 1553 1554 1555 1557 1557 1558 1558 1559 1559 1560 1561 1562 1563 1564 1565 1566 1566 1567 1568 1568 1569 1570 1570 1571 1571 1571 1572 1572 1572 1572 1571 1571
1530 1533 1536 1539 1540 1543 1544 1546 1546 1548 1549 1550 1552 1553 1554 1555 1555 1556 1556 1557 1558 1559 1559 1560 1561 1561 1562 1563 1563 1564 1564 1565 1566 1566 1567 1568 1568 1568 1568 1568 1568 1568 1568
1527 1530 1533 1536 1538 1540 1542 1543 1544 1546 1547 1548 1549 1551 1552 1552 1553 1553 1554 1555 1556 1557 1557 1558 1558 1558 1559 1559 1559 1559 1560 1561 1561 1562 1563 1564 1564 1565 1565 1564 1564 1564 1564
1524 1527 1531 1533 1536 1538 1540 1541 1542 1544 1545 1546 1547 1549 1550 1551 1552 1551 1552 1553 1553 1554 1554 1554 1555 1555 1555 1555 1555 1555 1556 1556 1557 1558 1559 1559 1560 1561 1561 1561 1561 1560 1560
1522 1525 1528 1531 1534 1536 1538 1540 1541 1542 1544 1545 1546 1547 1548 1548 1549 1549 1549 1550 1551 1551 1551 1551 1552 1552 1552 1551 1551 1551 1551 1552 1553 1554 1554 1555 1556 1556 1556 1556 1557 1557 1556
1520 1523 1526 1529 1532 1534 1536 1538 1539 1541 1542 1543 1545 1546 1546 1546 1547 1548 1548 1548 1548 1549 1549 1549 1549 1549 1548 1548 1548 1548 1548 1548 1548 1549 1549 1550 1551 1551 1552 1552 1552 1552 1553
1518 1521 1524 1527 1530 1532 1534 1536 1537 1539 1540 1542 1543 1544 1545 1545 1545 1546 1546 1546 1546 1546 1546 1546 1546 1546 1545 1545 1544 1545 1544 1544 1545 1545 1545 1546 1546 1547 1548 1548 1548 1548 1548
1516 1519 1522 1525 1528 1530 1533 1534 1536 1537 1539 1540 1541 1542 1543 1543 1544 1544 1544 1544 1544 1544 1544 1543 1543 1543 1542 1542 1541 1541 1541 1541 1541 1541 1542 1542 1542 1542 1543 1543 1543 1543 1543
1514 1517 1520 1522 1525 1528 1530 1532 1534 1536 1537 1538 1539 1540 1541 1541 1542 1542 1542 1542 1542 1542 1541 1541 1540 1540 1539 1539 1538 1538 1538 1538 1538 1538 1538 1538 1538 1538 1539 1539 1539 1539 1539
1512 1514 1517 1520 1522 1525 1527 1530 1532 1533 1535 1536 1537 1538 1539 1540 1540 1540 1540 1540 1540 1539 1539 1538 1538 1537 1536 1536 1536 1535 1535 1534 1534 1535 1535 1534 1534 1534 1534 1534 1534 1534 1534
1509 1511 1514 1516 1519 1522 1524 1526 1529 1530 1532 1533 1535 1535 1536 1537 1538 1538 1538 1538 1537 1537 1537 1536 1536 1535 1534 1533 1533 1533 1532 1531 1531 1531 1531 1531 1531 1530 1530 1530 1530 1530 1529
1506 1508 1511 1513 1515 1518 1520 1523 1525 1527 1529 1531 1532 1533 1534 1535 1535 1535 1535 1535 1535 1535 1534 1534 1533 1533 1532 1531 1530 1530 1529 1529 1528 1528 1528 1527 1527 1527 1526 1526 1525 1525 1525
1503 1505 1507 1509 1511 1514 1517 1519 1522 1524 1526 1528 1529 1531 1531 1532 1533 1533 1533 1533 1533 1532 1532 1531 1531 1530 1530 1529 1528 1527 1527 1526 1525 1525 1524 1524 1524 1523 1523 1522 1521 1521 1520
1500 1502 1504 1506 1508 1511 1513 1516 1519 1521 1523 1525 1526 1528 1529 1530 1530 1530 1530 1530 1530 1530 1530 1529 1528 1528 1527 1526 1526 1525 1524 1523 1522 1521 1521 1521 1520 1520 1520 1519 1519 1518 1517
1498 1499 1501 1503 1505 1507 1509 1512 1515 1518 1520 1522 1523 1524 1526 1526 1526 1526 1527 1527 1527 1527 1527 1526 1526 1525 1524 1524 1523 1522 1521 1521 1520 1519 1518 1518 1517 1517 1516 1516 1515 1514 1514
1495 1496 1498 1500 1502 1504 1506 1509 1511 1514 1516 1518 1520 1521 1522 1522 1523 1523 1524 1525 1524 1524 1524 1523 1523 1522 1522 1521 1520 1519 1519 1518 1517 1516 1515 1515 1514 1514 1513 1513 1512 1511 1511
1493 1494 1496 1497 1499 1501 1504 1506 1508 1510 1512 1514 1516 1518 1519 1520 1520 1520 1521 1521 1521 1521 1521 1520 1520 1519 1519 1518 1517 1516 1515 1515 1515 1514 1513 1512 1511 1510 1510 1509 1509 1508 1508
1493 1494 1495 1496 1497 1499 1502 1504 1506 1508 1509 1512 1513 1515 1516 1517 1518 1517 1518 1518 1519 1519 1518 1517 1517 1516 1515 1515 1514 1513 1512 1512 1511 1511 1510 1509 1508 1507 1507 1506 1505 1505 1505
1493 1494 1495 1495 1497 1499 1500 1502 1503 1505 1507 1509 1511 1513 1513 1514 1515 1515 1515 1515 1516 1517 1516 1515 1515 1514 1513 1512 1511 1510 1509 1509 1508 1507 1507 1506 1505 1504 1504 1503 1503 1502 1502
1493 1494 1495 1496 1496 1498 1499 1501 1502 1504 1505 1507 1508 1510 1511 1511 1512 1512 1513 1513 1512 1513 1513 1513 1512 1511 1510 1509 1508 1507 1507 1506 1505 1505 1504 1503 1502 1502 1501 1500 1500 1500 1499
1494 1494 1495 1496 1497 1497 1498 1500 1501 1502 1504 1505 1506 1507 1508 1508 1508 1509 1510 1510 1509 1508 1509 1509 1508 1508 1508 1506 1505 1505 1505 1503 1503 1502 1502 1501 1501 1500 1500 1499 1498 1497 1496
1494 1495 1496 1496 1497 1498 1498 1499 1500 1501 1502 1503 1504 1505 1506 1506 1506 1506 1506 1506 1507 1506 1506 1505 1505 1504 1504 1503 1502 1502 1501 1500 1500 1500 1500 1499 1499 1498 1498 1497 1496 1495 1494